Погода Остров Диксон

Погода Остров Диксон : погода сейчас, прогноз погоды и архив. Всё, что Вы хотите узнать о погоде Остров Диксон!

Хотите узнать прогноз погоды Остров Диксон? Тогда Вам сюда: Погода Остров Диксон

Поиск расширенной информации на нашем сайте:

Другие новости

Новости СМИ2

Главная страница сайта

Новости сайта

03.07.2017

Напоминаем, что на нашем специализированном сайте Метеоцентр.Азия вы можете получить высокодетализированные автоматические прогнозы погоды по пунктам России, СНГ и мира в авиационном формате (включающие направление и скорость ветра, видимость, явления погоды, количество и форму облачности, нижнюю и верхнюю границу облачности).

Рекомендуем: Описание купить данабол у нас на сайте.

Погода Остров Диксон - сегодня

Время (UTC), дата Ветер
(°,м/с) 
Видим.   Явления Облачность Т
(°С)
Тd
(°С)
f(%) Тe
(°С)
Pmin
(гПа)
dP
(гПа)
Po
(мм)
O2
(г/м3)
Тmin Tmax R s Состояние
почвы
06 15.09.17 030 (СВ) 8{10}  20000 м    4/4 200 м средняя, верхняя 
[St|Ac cast|Ci fib]
+3.2 +1.8 91 1008.3  -0.6  752  299           
09 15.09.17 030 (СВ) 7{11}  20000 м    3/0 средняя 
[Ac trans]
+3.3 +1.6 89 1008.1  0.3  752  299           
12 15.09.17 040 (СВ) 7{10}  20000 м    3/0 верхняя 
[Ci fib]
+2.8 +1.4 90 -1  1008.6  0.5  752  300    +3.6       
15 15.09.17 040 (СВ) 20000 м    3/0 верхняя 
[Ci fib]
+1.7 +0.2 90 1009.3  0.7  753  301           
18 15.09.17 030 (СВ) 20000 м    ясно 
+1.3 -0.3 89 +1  1009.7  0.4  753  302           
21 15.09.17 130 (ЮВ) 20000 м    ясно 
+1.2 -0.5 88 1010.5  0.8  754  302           
03 16.09.17 070 (В) 20000 м    ясно 
+0.3 -1.1 90 -1  1012.1  0.8  755  304  -1.6         
06 16.09.17 100 (В) 20000 м    1/1 200 м 
[St]
+2.2 -0.1 85 +2  1012.6  0.6  755  302           
09 16.09.17 360 (С) 20000 м    10/10 180 м 
[St]
+1.5 +0.4 92 +1  1013.6  756  303           
15 16.09.17 070 (В) 20000 м    10/10 240 м 
[St]
+0.7 -0.2 94 1014.1  0.1  756  304           
21 16.09.17 130 (ЮВ) 4000 м  слаб. ливневой снег{морось}  10/0 средняя 
[As op]
-0.9 -1.3 97 -3  1014.6  -0.3  757  306           
03 17.09.17 150 (ЮВ) 20000 м    9/0 средняя 
[Ac und]
-0.5 -2.1 89 -3  1014.8  0.4  757  306  -1.3         
06 17.09.17 150 (ЮВ) 20000 м    9/6 300 м средняя 
[Sc|Ac und]
+0.8 -1.4 85 -2  1014.9  0.1  757  304           
09 17.09.17 130 (ЮВ) 20000 м    9/6 450 м средняя 
[Sc|Ac und]
+1.8 -1.4 79 1014.9  0.1  757  303           
15 17.09.17 080 (В) 20000 м    9/9 800 м 
[Sc]
+1.4 +0.1 91 -1  1015.1  0.1  757  303           
18 17.09.17 090 (В) 20000 м    9/9 800 м 
[Sc]
+1 -0.6 89 -1  1015.2  0.1  757  304           
21 17.09.17 090 (В) 20000 м    9/9 900 м 
[Sc]
+0.8 -0.6 90 -2  1014.9  -0.3  757  304           
09 18.09.17 050 (СВ) 20000 м    9/9 1300 м 
[Sc]
+2.7 +0.8 87 +1  1017.5  1.1  759  303           
15 18.09.17 010 (С) 20000 м    9/0 средняя 
[Ac und]
+2 +1.2 94 +1  1019  760  304           
18 18.09.17 030 (СВ) 20000 м    9/0 средняя 
[Ac und]
+1.9 +1.2 95 1019.7  0.7  760  304           
21 18.09.17 070 (В) 20000 м    9/0 средняя 
[Ac und]
+1.4 +0.9 96 +1  1020  0.2  761  305           
00 19.09.17 030 (СВ) 20000 м    9/0 средняя 
[Ac und]
+1.6 +1.1 96 +2  1020.6  0.7  761  305  +1.4         
03 19.09.17 360 (С) 20000 м    9/6 120 м средняя 
[St|Ac trans]
+1.8 +1.2 96 +1  1021.1  0.4  761  305           
06 19.09.17 330 (СЗ) 20000 м    9/8 150 м средняя 
[St|Ac trans]
+1.6 +0.7 94 -1  1021.6  0.5  762  305           
09 19.09.17 040 (СВ) 20000 м    9/9 360 м 
[Sc]
+1.8 +0.1 88 +1  1021.5  -0.1  762  305           
Время (UTC), дата Ветер
(°,м/с) 
Видим.   Явления Облачность Т
(°С)
Тd
(°С)
f(%) Тe
(°С)
Pmin
(гПа)
dP
(гПа)
Po
(мм)
O2
(г/м3)
Тmin Tmax R s Состояние
почвы

Для получения пояснительной информации подведите курсор к названию столбца.

ПОГОДА Остров Диксон - архив

Всё, что Вы хотите узнать о погоде Остров Диксон - удобно и подробно!

Выберите нужную дату (начиная с 1 января 2015* года) и нажмите кнопку "Найти".
Будут отображены архивные сводки погоды по пункту Остров Диксон, начиная с указанной даты.


Отображать данные в формате CSV (для использования в таблицах Excel)


Внимание! Наш архив погоды предназначен исключительно для личного некоммерческого использования в познавательных целях. Если Вам необходимы официальные справки о состоянии погоды (для производственных, юридических, коммерческих и т.п. целей), обращайтесь в органы Росгидромета.

*Примечание: данная дата относится к архиву по метеостанциям СССР (Россия, СНГ, Балтия).
Архив по метеостанциям Зарубежной Европы и Азии (кроме Китая) хранится 10 дней, по другим регионам земного шара (Китай, Африка, Америка, Австралия, Океания) - 1 день.

Остров Диксон - район местоположения метеостанции


Название, широта, долгота, высота метеостанции:
Остров Диксон 73.5°ш. 80.4°д. 47 м над ур. моря [Российская Федерация]

Дополнительная информация

В oтличие oт бoльшинства пoгoдных сайтoв мы публикуем пoдрoбную метеoинфoрмацию в детальнoм прoфессиoнальнoм фoрмате.

Характеристики температуры и влажнoсти вoздуха измеряются на высoте 2 м в тени вдали oт зданий и деревьев.
Скoрoсть ветра измеряется на высoте 10 м (на урoвне рoста челoвека скoрoсть ветра ниже в 1.5-2 раза). Если метеoстанция нахoдится в гoрoде или в лесу, тo скoрoсть ветра занижена на 2-4 м/с пo сравнению с oткрытым местoм. Скoрoсть ветра над акватoриями крупных рек и oзёр, а также на вершинах хoлмoв на 2-5 м/с выше, чем в oбычных услoвиях.
Атмoсфернoе давление в разных тoчках местнoсти мoжет значительнo oтличаться oт давления на метеoстанции, в зависимoсти oт услoвий рельефа (при пoдъёме на 10 м давление пoнижается примернo на 1 мм рт.ст.).